| time (UTC) | temp F | wind direction | speed knots | gust knots | rain 1hr in | rain 24hr in | rain mn in | humidity % | barometer mb |
| 20260505223926 | 52 | 46 | 0.0 | 0.0 | 0.00 | 0.00 | 0.00 | 95 | 1007.0 |
| 20260505223427 | 52 | 46 | 0.0 | 0.0 | 0.00 | 0.00 | 0.00 | 94 | 1007.0 |
| 20260505222925 | 53 | 46 | 0.0 | 0.0 | 0.00 | 0.00 | 0.00 | 93 | 1007.0 |
| 20260505222427 | 53 | 46 | 0.0 | 0.0 | 0.00 | 0.00 | 0.00 | 93 | 1007.0 |
| 20260505221925 | 53 | 68 | 0.0 | 0.0 | 0.00 | 0.00 | 0.00 | 93 | 1008.0 |
| 20260505221427 | 53 | 68 | 0.0 | 0.0 | 0.00 | 0.00 | 0.00 | 93 | 1007.0 |
| 20260505220927 | 53 | 39 | 0.0 | 0.0 | 0.00 | 0.00 | 0.00 | 93 | 1007.0 |
| 20260505220425 | 53 | 79 | 0.0 | 0.0 | 0.00 | 0.00 | 0.00 | 92 | 1007.0 |
| 20260505215928 | 53 | 80 | 0.0 | 0.0 | 0.00 | 0.00 | 0.00 | 91 | 1007.0 |
| 20260505215427 | 54 | 60 | 0.0 | 0.0 | 0.00 | 0.00 | 0.00 | 91 | 1007.0 |
| 20260505214927 | 54 | 73 | 0.0 | 0.0 | 0.00 | 0.00 | 0.00 | 90 | 1007.0 |
| 20260505214427 | 54 | 249 | 0.0 | 0.0 | 0.00 | 0.00 | 0.00 | 89 | 1007.0 |
| 20260505213926 | 55 | 254 | 0.0 | 0.9 | 0.00 | 0.00 | 0.00 | 88 | 1007.0 |
| 20260505213427 | 55 | 168 | 0.0 | 0.0 | 0.00 | 0.00 | 0.00 | 88 | 1007.0 |
| 20260505212926 | 55 | 83 | 0.0 | 0.0 | 0.00 | 0.00 | 0.00 | 88 | 1007.0 |
| 20260505212427 | 55 | 255 | 0.0 | 0.9 | 0.00 | 0.00 | 0.00 | 89 | 1007.0 |
| 20260505211925 | 55 | 246 | 0.0 | 0.9 | 0.00 | 0.00 | 0.00 | 90 | 1007.0 |
| 20260505211427 | 54 | 315 | 0.0 | 0.0 | 0.00 | 0.00 | 0.00 | 94 | 1007.0 |
| 20260505210928 | 54 | 341 | 0.0 | 0.9 | 0.00 | 0.00 | 0.00 | 94 | 1007.0 |
| 20260505210429 | 54 | 31 | 0.0 | 0.0 | 0.00 | 0.00 | 0.00 | 94 | 1007.0 |
| 20260505205927 | 54 | 30 | 0.0 | 0.0 | 0.00 | 0.00 | 0.00 | 93 | 1007.0 |
| 20260505205427 | 55 | 49 | 0.0 | 0.0 | 0.00 | 0.00 | 0.00 | 93 | 1007.0 |
| 20260505204929 | 55 | 46 | 0.0 | 0.0 | 0.00 | 0.00 | 0.00 | 93 | 1007.0 |
| 20260505204429 | 55 | 337 | 0.0 | 0.0 | 0.00 | 0.00 | 0.00 | 93 | 1007.0 |
| 20260505203927 | 55 | 24 | 0.0 | 0.0 | 0.00 | 0.00 | 0.00 | 94 | 1007.0 |
| 20260505203427 | 55 | 318 | 0.0 | 0.0 | 0.00 | 0.00 | 0.00 | 94 | 1007.0 |
| 20260505202926 | 55 | 63 | 0.0 | 0.0 | 0.00 | 0.00 | 0.00 | 94 | 1007.0 |
| 20260505202427 | 55 | 44 | 0.0 | 0.0 | 0.00 | 0.00 | 0.00 | 93 | 1007.0 |
| 20260505201927 | 55 | 44 | 0.0 | 0.0 | 0.00 | 0.00 | 0.00 | 93 | 1007.0 |
| 20260505201429 | 55 | 43 | 0.0 | 0.0 | 0.00 | 0.00 | 0.00 | 92 | 1007.0 |
| 20260505200927 | 55 | 44 | 0.0 | 0.0 | 0.00 | 0.00 | 0.00 | 92 | 1007.0 |
| 20260505200428 | 55 | 43 | 0.0 | 0.0 | 0.00 | 0.00 | 0.00 | 92 | 1007.0 |
| 20260505195931 | 56 | 13 | 0.0 | 0.0 | 0.00 | 0.00 | 0.00 | 92 | 1007.0 |
| 20260505195429 | 56 | 16 | 0.0 | 0.0 | 0.00 | 0.00 | 0.00 | 92 | 1007.0 |
| 20260505194929 | 56 | 346 | 0.0 | 0.0 | 0.00 | 0.00 | 0.00 | 92 | 1007.0 |
| 20260505194426 | 56 | 287 | 0.0 | 0.0 | 0.00 | 0.00 | 0.00 | 91 | 1007.0 |
| 20260505193927 | 56 | 273 | 0.9 | 0.9 | 0.00 | 0.00 | 0.00 | 91 | 1007.0 |
| 20260505193427 | 56 | 275 | 0.9 | 1.7 | 0.00 | 0.00 | 0.00 | 91 | 1007.0 |
| 20260505192927 | 56 | 290 | 1.7 | 1.7 | 0.00 | 0.00 | 0.00 | 91 | 1007.0 |
| 20260505192427 | 56 | 311 | 0.9 | 1.7 | 0.00 | 0.00 | 0.00 | 92 | 1006.0 |
| 20260505191928 | 56 | 281 | 0.9 | 0.9 | 0.00 | 0.00 | 0.00 | 91 | 1007.0 |
| 20260505191427 | 56 | 267 | 0.9 | 0.9 | 0.00 | 0.00 | 0.00 | 91 | 1007.0 |
| 20260505190926 | 57 | 314 | 0.0 | 0.0 | 0.00 | 0.00 | 0.00 | 91 | 1006.0 |
| 20260505190426 | 57 | 276 | 1.7 | 1.7 | 0.00 | 0.00 | 0.00 | 91 | 1007.0 |
| 20260505185928 | 57 | 269 | 1.7 | 2.6 | 0.00 | 0.00 | 0.00 | 91 | 1006.0 |
| 20260505185428 | 57 | 251 | 1.7 | 2.6 | 0.00 | 0.00 | 0.00 | 90 | 1007.0 |
| 20260505184928 | 57 | 273 | 0.9 | 1.7 | 0.00 | 0.00 | 0.00 | 90 | 1006.0 |
| 20260505184427 | 57 | 298 | 2.6 | 4.3 | 0.00 | 0.00 | 0.00 | 90 | 1006.0 |
| 20260505183925 | 57 | 267 | 1.7 | 1.7 | 0.00 | 0.00 | 0.00 | 91 | 1006.0 |
| 20260505183429 | 57 | 299 | 1.7 | 1.7 | 0.00 | 0.00 | 0.00 | 91 | 1006.0 |
| 20260505182929 | 57 | 294 | 0.9 | 1.7 | 0.00 | 0.00 | 0.00 | 91 | 1006.0 |
| 20260505182427 | 57 | 336 | 0.0 | 0.0 | 0.00 | 0.00 | 0.00 | 90 | 1006.0 |
| 20260505181440 | 58 | 258 | 0.9 | 0.9 | 0.00 | 0.00 | 0.00 | 89 | 1006.0 |
| 20260505180927 | 57 | 326 | 0.9 | 1.7 | 0.00 | 0.00 | 0.00 | 89 | 1006.0 |
| 20260505180428 | 57 | 332 | 0.9 | 1.7 | 0.00 | 0.00 | 0.00 | 90 | 1006.0 |
| 20260505175925 | 57 | 240 | 0.0 | 0.0 | 0.00 | 0.00 | 0.00 | 90 | 1006.0 |
| 20260505175426 | 58 | 269 | 0.0 | 0.9 | 0.00 | 0.00 | 0.00 | 90 | 1006.0 |
| 20260505174927 | 57 | 354 | 0.0 | 0.0 | 0.00 | 0.00 | 0.00 | 90 | 1006.0 |
| 20260505174428 | 57 | 336 | 0.0 | 0.0 | 0.00 | 0.00 | 0.00 | 90 | 1006.0 |
| 20260505173927 | 57 | 24 | 0.0 | 0.0 | 0.00 | 0.00 | 0.00 | 90 | 1006.0 |
| 20260505173425 | 57 | 308 | 0.0 | 0.9 | 0.00 | 0.00 | 0.00 | 90 | 1006.0 |
| 20260505172927 | 57 | 235 | 0.0 | 0.0 | 0.00 | 0.00 | 0.00 | 89 | 1006.0 |
| 20260505172428 | 57 | 268 | 2.6 | 2.6 | 0.00 | 0.00 | 0.00 | 89 | 1006.0 |
| 20260505171926 | 57 | 294 | 1.7 | 2.6 | 0.00 | 0.00 | 0.00 | 88 | 1006.0 |
| 20260505171426 | 58 | 255 | 0.9 | 1.7 | 0.00 | 0.00 | 0.00 | 89 | 1006.0 |
| 20260505170927 | 58 | 276 | 1.7 | 1.7 | 0.00 | 0.00 | 0.00 | 88 | 1006.0 |
| 20260505170426 | 58 | 217 | 1.7 | 1.7 | 0.00 | 0.00 | 0.00 | 87 | 1006.0 |
| 20260505165928 | 59 | 288 | 1.7 | 1.7 | 0.00 | 0.00 | 0.00 | 87 | 1006.0 |
| 20260505165427 | 59 | 258 | 1.7 | 2.6 | 0.00 | 0.00 | 0.00 | 88 | 1006.0 |
| 20260505164929 | 59 | 279 | 2.6 | 2.6 | 0.00 | 0.00 | 0.00 | 87 | 1006.0 |
| 20260505164431 | 59 | 284 | 2.6 | 2.6 | 0.00 | 0.00 | 0.00 | 87 | 1006.0 |
| 20260505163926 | 58 | 307 | 3.5 | 5.2 | 0.00 | 0.00 | 0.00 | 87 | 1006.0 |
| 20260505163425 | 58 | 250 | 2.6 | 2.6 | 0.00 | 0.00 | 0.00 | 87 | 1006.0 |
| 20260505162928 | 58 | 265 | 2.6 | 2.6 | 0.00 | 0.00 | 0.00 | 87 | 1006.0 |
| 20260505162428 | 58 | 310 | 3.5 | 5.2 | 0.00 | 0.00 | 0.00 | 87 | 1006.0 |
| 20260505161929 | 58 | 253 | 2.6 | 4.3 | 0.00 | 0.00 | 0.00 | 87 | 1006.0 |
| 20260505161425 | 58 | 275 | 3.5 | 5.2 | 0.00 | 0.00 | 0.00 | 89 | 1006.0 |
| 20260505160928 | 58 | 273 | 0.9 | 1.7 | 0.00 | 0.00 | 0.00 | 90 | 1006.0 |
| 20260505160426 | 58 | 286 | 0.9 | 1.7 | 0.00 | 0.00 | 0.00 | 90 | 1006.0 |
| 20260505152925 | 59 | 307 | 4.3 | 7.8 | 0.00 | 0.00 | 0.00 | 90 | 1006.0 |
| 20260505152428 | 59 | 268 | 4.3 | 7.0 | 0.00 | 0.00 | 0.00 | 89 | 1006.0 |
| 20260505151928 | 59 | 299 | 6.1 | 9.6 | 0.00 | 0.00 | 0.00 | 87 | 1006.0 |
| 20260505151428 | 59 | 320 | 5.2 | 7.0 | 0.00 | 0.00 | 0.00 | 86 | 1006.0 |
| 20260505150931 | 60 | 241 | 6.1 | 9.6 | 0.00 | 0.00 | 0.00 | 85 | 1006.0 |
| 20260505150427 | 60 | 230 | 5.2 | 7.0 | 0.00 | 0.00 | 0.00 | 86 | 1006.0 |
| 20260505140429 | 62 | 319 | 1.7 | 1.7 | 0.00 | 0.00 | 0.00 | 80 | 1006.0 |
| 20260505124929 | 71 | 338 | 0.0 | 0.0 | 0.00 | 0.00 | 0.00 | 55 | 1006.0 |
| 20260505124425 | 71 | 238 | 0.9 | 0.9 | 0.00 | 0.00 | 0.00 | 52 | 1006.0 |
| 20260505123928 | 71 | 157 | 0.9 | 0.9 | 0.00 | 0.00 | 0.00 | 56 | 1006.0 |
| 20260505123428 | 71 | 241 | 1.7 | 1.7 | 0.00 | 0.00 | 0.00 | 52 | 1006.0 |
| 20260505122926 | 70 | 347 | 0.9 | 0.9 | 0.00 | 0.00 | 0.00 | 54 | 1006.0 |
| 20260505122427 | 71 | 330 | 0.9 | 1.7 | 0.00 | 0.00 | 0.00 | 53 | 1006.0 |
| 20260505121927 | 71 | 258 | 1.7 | 1.7 | 0.00 | 0.00 | 0.00 | 50 | 1006.0 |
| 20260505121427 | 71 | 277 | 0.9 | 0.9 | 0.00 | 0.00 | 0.00 | 53 | 1006.0 |
| 20260505120928 | 71 | 221 | 3.5 | 4.3 | 0.00 | 0.00 | 0.00 | 51 | 1006.0 |
| 20260505120425 | 71 | 224 | 2.6 | 2.6 | 0.00 | 0.00 | 0.00 | 52 | 1006.0 |
| 20260505115925 | 70 | 311 | 0.0 | 0.9 | 0.00 | 0.00 | 0.00 | 52 | 1006.0 |
| 20260505115426 | 71 | 329 | 1.7 | 1.7 | 0.00 | 0.00 | 0.00 | 53 | 1006.0 |
| 20260505114927 | 70 | 243 | 1.7 | 1.7 | 0.00 | 0.00 | 0.00 | 52 | 1006.0 |
| 20260505114425 | 70 | 281 | 1.7 | 1.7 | 0.00 | 0.00 | 0.00 | 53 | 1006.0 |
| 20260505113927 | 70 | 267 | 0.9 | 0.9 | 0.00 | 0.00 | 0.00 | 51 | 1006.0 |
| 20260505113431 | 71 | 280 | 1.7 | 2.6 | 0.00 | 0.00 | 0.00 | 51 | 1006.0 |
| 20260505112928 | 71 | 261 | 1.7 | 1.7 | 0.00 | 0.00 | 0.00 | 53 | 1006.0 |
| 20260505112427 | 71 | 253 | 0.9 | 0.9 | 0.00 | 0.00 | 0.00 | 52 | 1006.0 |
| 20260505111927 | 72 | 273 | 1.7 | 2.6 | 0.00 | 0.00 | 0.00 | 52 | 1006.0 |
| 20260505111428 | 72 | 304 | 0.9 | 0.9 | 0.00 | 0.00 | 0.00 | 51 | 1006.0 |
| 20260505110927 | 72 | 36 | 0.0 | 0.0 | 0.00 | 0.00 | 0.00 | 51 | 1006.0 |
| 20260505110427 | 71 | 259 | 0.0 | 0.9 | 0.00 | 0.00 | 0.00 | 52 | 1006.0 |
| 20260505101927 | 71 | 264 | 1.7 | 4.3 | 0.00 | 0.00 | 0.00 | 56 | 1006.0 |
| 20260505101430 | 71 | 268 | 3.5 | 5.2 | 0.00 | 0.00 | 0.00 | 52 | 1006.0 |
| 20260505100926 | 72 | 256 | 1.7 | 2.6 | 0.00 | 0.00 | 0.00 | 52 | 1007.0 |
| 20260505100426 | 71 | 300 | 2.6 | 4.3 | 0.00 | 0.00 | 0.00 | 58 | 1007.0 |
| 20260505095928 | 71 | 290 | 0.9 | 0.9 | 0.00 | 0.00 | 0.00 | 51 | 1007.0 |
| 20260505095428 | 71 | 82 | 0.9 | 0.9 | 0.00 | 0.00 | 0.00 | 57 | 1007.0 |
| 20260505094925 | 72 | 215 | 1.7 | 1.7 | 0.00 | 0.00 | 0.00 | 62 | 1007.0 |
| 20260505094426 | 71 | 42 | 0.9 | 0.9 | 0.00 | 0.00 | 0.00 | 59 | 1007.0 |
| 20260505093927 | 70 | 6 | 0.0 | 0.0 | 0.00 | 0.00 | 0.00 | 60 | 1007.0 |
| 20260505093427 | 69 | 7 | 0.0 | 0.0 | 0.00 | 0.00 | 0.00 | 61 | 1007.0 |
| 20260505092927 | 70 | 5 | 0.0 | 0.9 | 0.00 | 0.00 | 0.00 | 61 | 1007.0 |
| 20260505092429 | 69 | 207 | 0.9 | 1.7 | 0.00 | 0.00 | 0.00 | 63 | 1007.0 |
| 20260505091927 | 68 | 318 | 0.0 | 0.9 | 0.00 | 0.00 | 0.00 | 65 | 1007.0 |
| 20260505091428 | 68 | 186 | 0.0 | 0.9 | 0.00 | 0.00 | 0.00 | 65 | 1007.0 |
| 20260505090928 | 68 | 43 | 0.0 | 0.9 | 0.00 | 0.00 | 0.00 | 64 | 1007.0 |
| 20260505090428 | 68 | 37 | 1.7 | 2.6 | 0.00 | 0.00 | 0.00 | 66 | 1007.0 |
| 20260505085926 | 67 | 30 | 0.0 | 0.9 | 0.00 | 0.00 | 0.00 | 67 | 1007.0 |
| 20260505085426 | 68 | 24 | 0.0 | 0.0 | 0.00 | 0.00 | 0.00 | 68 | 1007.0 |
| 20260505084927 | 67 | 317 | 0.0 | 0.0 | 0.00 | 0.00 | 0.00 | 69 | 1007.0 |
| 20260505084426 | 67 | 31 | 0.0 | 0.9 | 0.00 | 0.00 | 0.00 | 70 | 1007.0 |
| 20260505083927 | 67 | 313 | 0.0 | 0.0 | 0.00 | 0.00 | 0.00 | 68 | 1007.0 |
| 20260505083426 | 67 | 282 | 0.9 | 0.9 | 0.00 | 0.00 | 0.00 | 68 | 1007.0 |
| 20260505082928 | 66 | 29 | 0.0 | 0.9 | 0.00 | 0.00 | 0.00 | 67 | 1007.0 |
| 20260505082425 | 67 | 16 | 0.9 | 1.7 | 0.00 | 0.00 | 0.00 | 68 | 1007.0 |
| 20260505081926 | 66 | 263 | 0.9 | 0.9 | 0.00 | 0.00 | 0.00 | 69 | 1007.0 |
| 20260505081426 | 65 | 59 | 0.0 | 0.9 | 0.00 | 0.00 | 0.00 | 72 | 1007.0 |
| 20260505080926 | 65 | 296 | 0.9 | 0.9 | 0.00 | 0.00 | 0.00 | 73 | 1007.0 |
| 20260505080426 | 65 | 51 | 0.0 | 0.0 | 0.00 | 0.00 | 0.00 | 74 | 1008.0 |
| 20260505075925 | 65 | 56 | 0.0 | 0.0 | 0.00 | 0.00 | 0.00 | 74 | 1007.0 |
| 20260505075425 | 64 | 42 | 0.9 | 1.7 | 0.00 | 0.00 | 0.00 | 74 | 1007.0 |
| 20260505074925 | 64 | 162 | 0.0 | 0.9 | 0.00 | 0.00 | 0.00 | 77 | 1008.0 |
| 20260505074426 | 63 | 36 | 0.0 | 0.0 | 0.00 | 0.00 | 0.00 | 77 | 1008.0 |
| 20260505073925 | 63 | 76 | 0.9 | 0.9 | 0.00 | 0.00 | 0.00 | 77 | 1008.0 |
| 20260505073431 | 62 | 277 | 0.9 | 0.9 | 0.00 | 0.00 | 0.00 | 80 | 1008.0 |
| 20260505072925 | 62 | 272 | 0.9 | 1.7 | 0.00 | 0.00 | 0.00 | 79 | 1008.0 |
| 20260505072425 | 61 | 338 | 0.0 | 0.9 | 0.00 | 0.00 | 0.00 | 80 | 1007.0 |
| 20260505071926 | 61 | 256 | 0.0 | 0.0 | 0.00 | 0.00 | 0.00 | 83 | 1008.0 |
| 20260505071426 | 60 | 261 | 0.9 | 0.9 | 0.00 | 0.00 | 0.00 | 82 | 1008.0 |
| 20260505070926 | 60 | 263 | 2.6 | 2.6 | 0.00 | 0.00 | 0.00 | 82 | 1008.0 |
| 20260505070426 | 62 | 257 | 1.7 | 1.7 | 0.00 | 0.00 | 0.00 | 79 | 1008.0 |
| 20260505065925 | 61 | 72 | 0.9 | 0.9 | 0.00 | 0.00 | 0.00 | 81 | 1008.0 |
| 20260505065426 | 60 | 298 | 0.9 | 0.9 | 0.00 | 0.00 | 0.00 | 83 | 1008.0 |
| 20260505064927 | 59 | 276 | 0.9 | 0.9 | 0.00 | 0.00 | 0.00 | 84 | 1008.0 |
| 20260505064425 | 59 | 283 | 0.0 | 0.9 | 0.00 | 0.00 | 0.00 | 83 | 1008.0 |
| 20260505063926 | 58 | 10 | 0.0 | 0.0 | 0.00 | 0.00 | 0.00 | 86 | 1008.0 |
| 20260505063425 | 56 | 315 | 0.0 | 0.9 | 0.00 | 0.00 | 0.00 | 88 | 1008.0 |
| 20260505062925 | 56 | 23 | 0.0 | 0.0 | 0.00 | 0.00 | 0.00 | 89 | 1008.0 |
| 20260505062425 | 56 | 298 | 0.9 | 0.9 | 0.00 | 0.00 | 0.00 | 88 | 1008.0 |
| 20260505061925 | 55 | 14 | 0.0 | 0.0 | 0.00 | 0.00 | 0.00 | 89 | 1008.0 |
| 20260505061425 | 56 | 302 | 0.0 | 0.9 | 0.00 | 0.00 | 0.00 | 89 | 1009.0 |
| 20260505060927 | 56 | 303 | 0.9 | 0.9 | 0.00 | 0.00 | 0.00 | 88 | 1008.0 |
| 20260505060426 | 56 | 292 | 0.9 | 0.9 | 0.00 | 0.00 | 0.00 | 88 | 1008.0 |
| 20260505055925 | 55 | 269 | 0.0 | 0.9 | 0.00 | 0.00 | 0.00 | 89 | 1008.0 |
| 20260505055425 | 54 | 269 | 0.9 | 0.9 | 0.00 | 0.00 | 0.00 | 91 | 1008.0 |
| 20260505054926 | 53 | 288 | 0.9 | 0.9 | 0.00 | 0.00 | 0.00 | 94 | 1008.0 |
| 20260505054426 | 52 | 306 | 0.0 | 0.9 | 0.00 | 0.00 | 0.00 | 95 | 1008.0 |
| 20260505053926 | 51 | 9 | 0.0 | 0.0 | 0.00 | 0.00 | 0.00 | 97 | 1008.0 |
| 20260505053425 | 51 | 51 | 0.0 | 0.0 | 0.00 | 0.00 | 0.00 | 97 | 1008.0 |
| 20260505052925 | 51 | 51 | 0.0 | 0.0 | 0.00 | 0.00 | 0.00 | 97 | 1009.0 |
| 20260505052425 | 50 | 75 | 0.0 | 0.0 | 0.00 | 0.00 | 0.00 | 98 | 1008.0 |
| 20260505051925 | 50 | 33 | 0.0 | 0.0 | 0.00 | 0.00 | 0.00 | 98 | 1008.0 |
| 20260505051426 | 50 | 7 | 0.0 | 0.0 | 0.00 | 0.00 | 0.00 | 98 | 1008.0 |
| 20260505050925 | 50 | 48 | 0.0 | 0.0 | 0.00 | 0.00 | 0.00 | 98 | 1008.0 |
| 20260505050427 | 50 | 48 | 0.0 | 0.0 | 0.00 | 0.00 | 0.00 | 97 | 1008.0 |
| 20260505041425 | 49 | 21 | 0.0 | 0.0 | 0.00 | 0.00 | 0.00 | 97 | 1008.0 |
| 20260505040925 | 49 | 6 | 0.0 | 0.0 | 0.00 | 0.00 | 0.00 | 96 | 1008.0 |
| 20260505040426 | 50 | 6 | 0.0 | 0.0 | 0.00 | 0.00 | 0.00 | 96 | 1008.0 |
| 20260505035926 | 50 | 6 | 0.0 | 0.0 | 0.00 | 0.00 | 0.00 | 96 | 1008.0 |
| 20260505035425 | 50 | 3 | 0.0 | 0.0 | 0.00 | 0.00 | 0.00 | 96 | 1009.0 |
| 20260505034925 | 51 | 308 | 0.0 | 0.0 | 0.00 | 0.00 | 0.00 | 96 | 1009.0 |
| 20260505034426 | 50 | 297 | 0.0 | 0.0 | 0.00 | 0.00 | 0.00 | 97 | 1009.0 |
| 20260505033925 | 51 | 60 | 0.0 | 0.0 | 0.00 | 0.00 | 0.00 | 97 | 1009.0 |
| 20260505033426 | 50 | 315 | 0.0 | 0.9 | 0.00 | 0.00 | 0.00 | 97 | 1008.0 |
| 20260505032926 | 50 | 56 | 0.0 | 0.0 | 0.00 | 0.00 | 0.00 | 96 | 1008.0 |
| 20260505032426 | 50 | 24 | 0.0 | 0.0 | 0.00 | 0.00 | 0.00 | 95 | 1009.0 |
| 20260505031925 | 50 | 13 | 0.0 | 0.0 | 0.00 | 0.00 | 0.00 | 94 | 1009.0 |
| 20260505031425 | 50 | 13 | 0.0 | 0.0 | 0.00 | 0.00 | 0.00 | 94 | 1009.0 |
| 20260505030925 | 51 | 13 | 0.0 | 0.0 | 0.00 | 0.00 | 0.00 | 93 | 1009.0 |
| 20260505030425 | 51 | 13 | 0.0 | 0.0 | 0.00 | 0.00 | 0.00 | 93 | 1009.0 |
| 20260505025926 | 51 | 13 | 0.0 | 0.0 | 0.00 | 0.00 | 0.00 | 92 | 1009.0 |
| 20260505025425 | 52 | 13 | 0.0 | 0.0 | 0.00 | 0.00 | 0.00 | 92 | 1009.0 |
| 20260505024926 | 52 | 286 | 0.9 | 0.9 | 0.00 | 0.00 | 0.00 | 92 | 1009.0 |
| 20260505024425 | 52 | 273 | 0.9 | 0.9 | 0.00 | 0.00 | 0.00 | 92 | 1009.0 |
| 20260505023926 | 53 | 292 | 0.9 | 0.9 | 0.00 | 0.00 | 0.00 | 91 | 1009.0 |
| 20260505023428 | 53 | 290 | 0.0 | 0.0 | 0.00 | 0.00 | 0.00 | 91 | 1009.0 |
| 20260505022927 | 53 | 250 | 0.9 | 1.7 | 0.00 | 0.00 | 0.00 | 91 | 1009.0 |
| 20260505022425 | 53 | 238 | 1.7 | 1.7 | 0.00 | 0.00 | 0.00 | 91 | 1009.0 |
| 20260505021925 | 53 | 281 | 1.7 | 1.7 | 0.00 | 0.00 | 0.00 | 91 | 1009.0 |
| 20260505021425 | 53 | 267 | 1.7 | 2.6 | 0.00 | 0.00 | 0.00 | 91 | 1009.0 |
| 20260505020925 | 53 | 305 | 1.7 | 1.7 | 0.00 | 0.00 | 0.00 | 91 | 1009.0 |
| 20260505020425 | 53 | 271 | 1.7 | 1.7 | 0.00 | 0.00 | 0.00 | 91 | 1010.0 |
| 20260505015925 | 53 | 262 | 0.9 | 0.9 | 0.00 | 0.00 | 0.00 | 91 | 1009.0 |
| 20260505015425 | 53 | 269 | 0.9 | 1.7 | 0.00 | 0.00 | 0.00 | 91 | 1009.0 |
| 20260505014926 | 53 | 294 | 0.9 | 0.9 | 0.00 | 0.00 | 0.00 | 92 | 1009.0 |
| 20260505014425 | 52 | 256 | 0.9 | 0.9 | 0.00 | 0.00 | 0.00 | 93 | 1009.0 |
| 20260505013926 | 52 | 303 | 0.0 | 0.9 | 0.00 | 0.00 | 0.00 | 93 | 1009.0 |
| 20260505013426 | 52 | 55 | 0.0 | 0.0 | 0.00 | 0.00 | 0.00 | 93 | 1009.0 |
| 20260505012925 | 52 | 45 | 0.0 | 0.0 | 0.00 | 0.00 | 0.00 | 93 | 1009.0 |
| 20260505012425 | 52 | 15 | 0.9 | 1.7 | 0.00 | 0.00 | 0.00 | 93 | 1009.0 |
| 20260505011928 | 52 | 42 | 0.0 | 0.0 | 0.00 | 0.00 | 0.00 | 92 | 1009.0 |
| 20260505011426 | 53 | 36 | 0.0 | 0.0 | 0.00 | 0.00 | 0.00 | 92 | 1009.0 |
| 20260505010926 | 53 | 36 | 0.0 | 0.0 | 0.00 | 0.00 | 0.00 | 92 | 1009.0 |
| 20260505010427 | 53 | 57 | 0.0 | 0.0 | 0.00 | 0.00 | 0.00 | 92 | 1009.0 |
| 20260505005925 | 53 | 61 | 0.0 | 0.0 | 0.00 | 0.00 | 0.00 | 92 | 1009.0 |
| 20260505005425 | 53 | 33 | 0.0 | 0.0 | 0.00 | 0.00 | 0.00 | 92 | 1009.0 |
| 20260505004925 | 53 | 61 | 0.0 | 0.0 | 0.00 | 0.00 | 0.00 | 93 | 1009.0 |
| 20260505004425 | 53 | 61 | 0.0 | 0.0 | 0.00 | 0.00 | 0.00 | 92 | 1009.0 |
| 20260505003925 | 53 | 61 | 0.0 | 0.0 | 0.00 | 0.00 | 0.00 | 92 | 1009.0 |
| 20260505003425 | 53 | 61 | 0.0 | 0.0 | 0.00 | 0.00 | 0.00 | 91 | 1009.0 |
| 20260505002925 | 53 | 61 | 0.0 | 0.0 | 0.00 | 0.00 | 0.00 | 91 | 1010.0 |
| 20260505002426 | 54 | 61 | 0.0 | 0.0 | 0.00 | 0.00 | 0.00 | 90 | 1010.0 |
| 20260505001927 | 54 | 61 | 0.0 | 0.0 | 0.00 | 0.00 | 0.00 | 90 | 1010.0 |
| 20260505001428 | 54 | 61 | 0.0 | 0.0 | 0.00 | 0.00 | 0.00 | 90 | 1010.0 |
| 20260505000930 | 55 | 61 | 0.0 | 0.0 | 0.00 | 0.00 | 0.00 | 90 | 1010.0 |
| 20260505000428 | 55 | 61 | 0.0 | 0.0 | 0.00 | 0.00 | 0.00 | 89 | 1010.0 |
| 20260504235927 | 55 | 61 | 0.0 | 0.0 | 0.00 | 0.00 | 0.00 | 89 | 1010.0 |
| 20260504235426 | 56 | 61 | 0.0 | 0.0 | 0.00 | 0.00 | 0.00 | 88 | 1010.0 |
| 20260504234926 | 56 | 61 | 0.0 | 0.0 | 0.00 | 0.00 | 0.00 | 88 | 1010.0 |
| 20260504234426 | 56 | 61 | 0.0 | 0.0 | 0.00 | 0.00 | 0.00 | 86 | 1010.0 |
| 20260504233925 | 56 | 59 | 0.0 | 0.0 | 0.00 | 0.00 | 0.00 | 85 | 1010.0 |
| 20260504233425 | 57 | 59 | 0.0 | 0.0 | 0.00 | 0.00 | 0.00 | 85 | 1010.0 |
| 20260504232926 | 57 | 59 | 0.0 | 0.0 | 0.00 | 0.00 | 0.00 | 85 | 1010.0 |
| 20260504232426 | 57 | 57 | 0.0 | 0.0 | 0.00 | 0.00 | 0.00 | 84 | 1010.0 |
| 20260504231926 | 58 | 30 | 0.0 | 0.0 | 0.00 | 0.00 | 0.00 | 83 | 1010.0 |
| 20260504231425 | 58 | 351 | 0.0 | 0.0 | 0.00 | 0.00 | 0.00 | 83 | 1010.0 |
| 20260504230925 | 58 | 273 | 0.9 | 0.9 | 0.00 | 0.00 | 0.00 | 83 | 1010.0 |
| 20260504230425 | 59 | 17 | 0.0 | 0.0 | 0.00 | 0.00 | 0.00 | 82 | 1010.0 |
| 20260504225926 | 59 | 347 | 0.0 | 0.0 | 0.00 | 0.00 | 0.00 | 82 | 1011.0 |
| 20260504225425 | 59 | 305 | 0.0 | 0.0 | 0.00 | 0.00 | 0.00 | 81 | 1010.0 |
| 20260504224925 | 59 | 304 | 0.9 | 0.9 | 0.00 | 0.00 | 0.00 | 80 | 1011.0 |
| 20260504224427 | 59 | 291 | 0.9 | 0.9 | 0.00 | 0.00 | 0.00 | 80 | 1011.0 |